Weather History for Anderson, SC

Change the Weather History Date:

Thursday, November 1, 2012

  Actual Average Record
Temperature  
Mean Temperature 52 °F -  
Max Temperature 66 °F 70 °F 86 °F (1950)
Min Temperature 39 °F 49 °F 28 °F (1954)
Degree Days  
Heating Degree Days 14    
Growing Degree Days 2 (Base 50)    
Moisture  
Dew Point 22 °F    
Average Humidity 34    
Maximum Humidity 58    
Minimum Humidity 16    
Precipitation  
Precipitation 0.00 in - - ()
Sea Level Pressure  
Sea Level Pressure 29.87 in    
Wind  
Wind Speed 8 mph (West)    
Max Wind Speed 15 mph    
Max Gust Speed 24 mph    
Visibility 10 miles    
Events      
Averages and records for this station are not official NWS values.
T = Trace of Precipitation, MM = Missing Value Source: NWS Daily Summary

Daily Weather History Graph

Daily Weather History Graph

Search for Another Location

Airport:

Trip Planner

Search our weather history database for the weather conditions in past years. The results will help you decide how hot, cold, wet, or windy it might be!

Date:

Astronomy

Nov. 01, 2012 Rise Set
Actual Time 7:51 AM EDT 6:36 PM EDT
Civil Twilight 7:25 AM EDT 7:02 PM EDT
Nautical Twilight 6:55 AM EDT 7:32 PM EDT
Astronomical Twilight 6:26 AM EDT 8:01 PM EDT
Moon 8:38 PM EDT (11/1) 10:17 AM EDT (11/1)
Length of Visible Light 11h 37m
Length of Day
10h 45m
Waning Gibbous, 93% of the Moon is Illuminated
Nov 1
Waning Gibbous
Nov 6
Last Quarter
Nov 13
New
Nov 20
First Quarter
Nov 28
Full

Hourly Weather History & Observations

Time (EDT) Temp. Windchill Dew Point Humidity Pressure Visibility Wind Dir Wind Speed Gust Speed Precip Events Conditions
12:56 AM 51.1 °F - 23.0 °F 33% 29.83 in 10.0 mi WNW 8.1 mph - N/A   Clear
1:56 AM 48.0 °F - 24.1 °F 39% 29.83 in 10.0 mi West 8.1 mph - N/A   Clear
2:56 AM 46.0 °F 43.9 °F 24.1 °F 42% 29.84 in 10.0 mi NW 4.6 mph - N/A   Clear
3:56 AM 43.0 °F 39.5 °F 25.0 °F 49% 29.83 in 10.0 mi NW 5.8 mph - N/A   Clear
4:56 AM 43.0 °F 41.3 °F 23.0 °F 45% 29.83 in 10.0 mi WNW 3.5 mph - N/A   Clear
5:56 AM 39.9 °F 37.8 °F 25.0 °F 55% 29.84 in 10.0 mi WSW 3.5 mph - N/A   Clear
8:56 AM 42.1 °F 39.2 °F 28.0 °F 58% 29.89 in 10.0 mi WSW 4.6 mph - N/A   Clear
9:56 AM 48.0 °F - 27.0 °F 44% 29.90 in 10.0 mi SW 10.4 mph - N/A   Clear
10:56 AM 51.1 °F - 26.1 °F 38% 29.91 in 10.0 mi West 10.4 mph - N/A   Clear
12:56 PM 57.0 °F - 23.0 °F 27% 29.89 in 10.0 mi WSW 11.5 mph 17.3 mph N/A   Clear
1:56 PM 60.1 °F - 21.9 °F 23% 29.86 in 10.0 mi SW 12.7 mph 19.6 mph N/A   Clear
2:56 PM 62.1 °F - 19.0 °F 19% 29.84 in 10.0 mi West 15.0 mph 24.2 mph N/A   Clear
3:56 PM 64.9 °F - 17.1 °F 16% 29.82 in 10.0 mi WSW 12.7 mph - N/A   Clear
5:56 PM 62.1 °F - 17.1 °F 18% 29.84 in 10.0 mi West 11.5 mph 19.6 mph N/A   Clear
6:56 PM 57.9 °F - 18.0 °F 21% 29.87 in 10.0 mi West 11.5 mph - N/A   Clear
7:56 PM 55.0 °F - 19.0 °F 24% 29.91 in 10.0 mi WNW 10.4 mph - N/A   Clear
8:56 PM 54.0 °F - 18.0 °F 24% 29.91 in 10.0 mi WNW 10.4 mph - N/A   Clear
9:56 PM 51.1 °F - 19.0 °F 28% 29.94 in 10.0 mi WNW 4.6 mph - N/A   Clear
10:56 PM 51.1 °F - 23.0 °F 33% 29.94 in 10.0 mi West 5.8 mph - N/A   Clear
11:56 PM 48.0 °F - 24.1 °F 39% 29.94 in 10.0 mi WSW 5.8 mph - N/A   Clear